Location: Fiddletown
(38.4917°N, 120.6633°W)
Time: 12:12:32
(UTC-07:00)

Envisat - Visible Passes

Search period start: 20 June 2018 00:00
Search period end: 30 June 2018 00:00
Orbit: 764 x 766 km, 98.2° (Epoch: 20 June)

Date Brightness Start Highest point End Pass type
(mag) Time Alt. Az. Time Alt. Az. Time Alt. Az.
20 Jun 5.7 21:42:34 10° WSW 21:45:13 14° W 21:47:51 10° WNW visible
21 Jun 4.7 21:03:39 10° SSW 21:08:11 32° W 21:12:44 10° NNW visible
23 Jun 5.5 21:30:30 10° SW 21:33:56 18° W 21:37:24 10° NW visible
26 Jun 5.2 21:18:41 10° SSW 21:22:41 23° W 21:26:42 10° NW visible
28 Jun 5.7 21:46:20 10° WSW 21:48:30 13° W 21:50:41 10° WNW visible
29 Jun 4.9 21:07:03 10° SSW 21:11:27 29° W 21:15:53 10° NW visible
